Location: Newark
(41.0400°S, 62.7845°W)
Time: 21:54:29
(UTC+00:00)

MOZHAYETS 4 - Visible Passes

Search period start: 22 January 2022 00:00
Search period end: 01 February 2022 00:00
Orbit: 662 x 678 km, 98.2° (Epoch: 22 January)

Date Brightness Start Highest point End Pass type
(mag) Time Alt. Az. Time Alt. Az. Time Alt. Az.
22 Jan 7.7 07:26:04 10° S 07:30:43 82° WSW 07:33:49 21° NNW visible
23 Jan 9.8 06:22:39 10° SE 06:26:11 21° E 06:28:43 14° NE visible
23 Jan 8.5 07:59:07 10° S 08:03:22 37° WSW 08:06:54 14° NW visible
24 Jan 8.5 06:54:42 10° SSE 06:59:09 46° E 07:01:48 22° NNE visible
24 Jan 9.4 08:32:43 10° SSW 08:35:52 18° WSW 08:39:00 10° WNW visible
25 Jan 7.7 07:27:19 10° S 07:31:58 80° WSW 07:34:53 22° NNW visible
26 Jan 9.7 06:23:51 10° SE 06:27:26 22° E 06:29:45 15° NE visible
26 Jan 8.5 08:00:23 10° S 08:04:37 36° WSW 08:07:58 15° NW visible
27 Jan 8.5 06:55:56 10° SSE 07:00:24 47° E 07:02:50 24° NNE visible
27 Jan 9.4 08:34:01 10° SSW 08:37:06 18° WSW 08:40:11 10° WNW visible
28 Jan 7.7 07:28:34 10° S 07:33:12 77° WSW 07:35:55 25° NNW visible
29 Jan 9.7 06:25:03 10° SE 06:28:42 22° E 06:30:46 17° NE visible
29 Jan 8.5 08:01:39 10° S 08:05:51 35° WSW 08:08:59 16° NW visible
30 Jan 8.4 06:57:09 10° SSE 07:01:39 49° E 07:03:52 27° NNE visible
30 Jan 9.5 08:35:18 10° SSW 08:38:20 18° WSW 08:41:21 10° WNW visible
31 Jan 10.4 05:56:06 10° E 05:56:50 10° E 05:57:33 10° E visible
31 Jan 7.7 07:29:49 10° S 07:34:26 75° WSW 07:36:56 27° NNW visible
